Theta_e
338 338 338 336 334 333 333 333 333 334 333 334 334 335 334 335 335 336 337 335 337 339 340 342 344 347 348 349 347 347 346 344 342 342 342 343 343 343 344 344 343 342 340
339 338 338 335 335 336 335 333 333 332 332 333 334 336 336 334 336 338 338 333 337 338 339 341 344 347 348 348 346 346 343 340 340 341 340 340 340 341 341 342 341 339 337
341 341 338 336 337 339 338 336 333 333 332 332 334 335 335 337 336 337 336 331 334 338 338 339 344 347 348 348 347 345 343 341 340 340 339 339 338 340 341 340 338 337 335
342 340 336 336 338 338 336 333 330 330 330 330 335 335 335 337 335 335 331 330 333 336 338 341 345 347 347 348 347 345 342 342 340 338 337 337 338 339 341 337 335 335 334
341 339 339 337 339 336 335 335 332 331 329 331 331 333 334 335 333 330 330 334 339 339 336 344 344 345 346 347 347 346 342 341 340 338 337 338 339 339 338 337 334 334 333
340 340 339 338 332 330 334 332 332 332 331 332 331 331 333 333 332 329 332 336 340 341 341 345 347 345 344 347 347 346 343 341 338 337 338 338 338 338 338 337 334 333 332
338 338 338 330 331 330 328 332 333 329 331 333 330 329 331 334 331 330 335 340 341 341 344 345 347 344 343 328 344 344 344 341 339 339 338 337 338 338 337 334 333 332 331
338 337 335 334 330 326 330 331 331 330 330 334 328 327 322 326 331 335 336 339 338 340 342 345 342 337 333 329 339 341 343 341 341 339 337 337 337 337 334 333 332 331 329
338 336 335 331 331 330 331 333 332 329 328 333 334 328 321 317 323 333 336 337 338 340 342 344 343 340 342 335 335 339 340 339 340 338 337 337 336 334 333 332 331 330 330
336 336 335 333 334 334 334 334 332 331 332 330 333 331 331 327 318 323 334 337 339 339 342 344 343 341 343 338 336 339 336 337 337 337 336 332 331 331 333 332 331 330 330
335 333 336 334 334 336 336 334 331 330 335 333 329 332 332 327 330 328 324 328 333 335 339 341 340 340 341 339 337 335 334 334 333 334 333 332 333 334 333 332 331 330 329
336 335 334 335 336 336 333 333 333 332 334 335 334 331 332 325 325 330 328 326 326 328 331 335 335 335 335 335 336 333 331 329 328 329 330 333 335 334 333 332 331 330 329
334 334 335 335 335 335 335 334 334 333 334 335 335 330 333 333 334 335 332 325 322 325 328 336 334 333 333 331 332 330 330 327 326 326 327 329 331 332 332 332 331 329 329
335 336 335 336 335 335 335 335 333 333 335 336 332 331 332 333 335 340 336 325 320 322 326 326 330 331 330 328 329 329 326 325 324 323 323 325 327 329 330 330 331 330 330
332 335 335 335 335 335 335 336 336 335 336 336 335 335 335 333 341 339 338 336 326 318 320 325 326 328 329 329 329 329 328 325 324 322 321 322 323 325 325 326 327 327 327
333 334 334 334 335 335 334 335 334 335 334 332 327 329 333 337 339 334 337 337 335 327 320 325 325 327 328 328 330 329 327 326 322 321 321 320 320 321 321 321 323 325 324
334 333 333 334 333 334 337 336 334 333 331 333 333 332 332 334 333 332 336 332 328 327 320 323 325 326 324 326 327 328 328 327 326 320 321 319 318 319 320 321 322 322 319
333 332 332 332 332 334 335 331 331 332 330 329 330 331 332 332 332 332 333 332 330 327 323 319 323 324 325 326 326 325 325 326 326 320 318 317 316 317 318 318 315 313 311
333 332 332 333 330 332 331 331 330 329 330 331 330 329 331 332 327 327 329 333 331 327 327 323 321 324 324 325 324 325 324 324 324 321 316 315 315 314 313 311 309 307 305
332 332 332 331 329 329 329 329 329 330 330 333 331 332 331 330 326 327 329 330 330 328 325 324 321 321 322 323 323 320 319 321 321 321 315 315 313 311 309 308 307 305 303
334 333 332 330 329 329 328 329 329 329 328 331 334 332 332 328 323 325 330 332 328 324 324 321 320 320 319 319 318 322 321 322 324 323 317 316 316 314 313 308 306 303 301
333 333 333 332 330 327 308 313 323 330 330 331 332 332 331 325 320 313 315 316 323 324 322 320 319 318 320 320 321 319 323 322 319 327 323 318 319 316 313 308 301 300 300
335 333 332 332 328 329 306 308 312 331 331 332 332 328 327 330 327 324 312 312 311 311 318 324 321 321 319 321 320 323 325 325 323 323 320 314 316 310 307 302 299 298 298
334 331 328 330 329 326 305 305 310 331 332 334 331 334 332 331 325 328 327 323 320 321 324 326 325 325 326 328 329 331 331 330 327 321 324 314 316 311 309 304 297 297 296
325 328 329 327 328 324 301 304 315 331 332 332 334 332 332 331 305 309 325 320 318 313 306 307 309 311 307 311 321 329 324 323 320 322 324 318 316 312 311 306 300 296 295
333 330 328 324 314 319 300 302 318 327 327 328 331 331 308 318 302 307 326 327 320 318 319 323 321 312 318 317 312 335 328 323 323 320 323 318 316 314 310 312 309 303 301
Wind_Speed
6 7 6 7 7 8 8 7 7 7 8 9 11 10 11 13 11 4 7 11 9 9 10 12 12 11 14 18 19 19 21 24 20 16 11 11 12 10 14 16 15 15 14
7 8 7 8 8 8 8 7 6 7 7 8 8 9 11 9 11 9 9 7 13 11 11 13 13 12 15 18 20 24 24 23 21 16 13 11 11 11 14 16 14 14 13
9 9 8 8 8 6 10 8 8 8 8 8 10 9 9 9 8 10 7 7 9 15 13 13 14 13 16 24 29 29 29 26 25 20 17 14 14 14 16 16 15 15 14
11 9 8 7 7 6 7 9 8 8 8 8 5 7 7 6 10 6 8 7 7 6 14 14 13 14 20 30 28 27 26 22 22 22 18 17 14 18 17 17 16 16 15
11 9 7 6 5 6 7 8 8 7 7 4 6 7 7 6 7 7 8 8 7 7 6 10 11 13 20 27 29 28 26 24 24 24 23 19 19 18 17 17 17 16 14
10 9 6 6 4 6 7 8 7 7 6 6 6 6 7 6 6 7 7 5 6 7 7 7 6 7 17 25 27 30 29 28 25 23 20 21 19 18 18 18 18 17 14
9 7 5 7 6 5 6 9 5 8 5 5 4 4 6 7 6 6 6 5 6 6 6 5 6 6 8 5 20 23 28 29 27 25 19 22 19 19 18 19 18 15 14
7 7 7 6 6 7 9 9 9 6 5 7 6 6 6 5 6 7 6 6 6 6 6 8 11 8 8 8 6 21 28 30 29 25 22 20 19 19 20 18 17 15 14
8 5 7 8 9 10 6 7 9 9 7 7 9 4 4 5 9 6 7 6 7 6 6 7 13 10 11 11 17 18 19 24 29 27 24 21 19 20 19 18 17 16 13
5 6 8 8 9 5 8 8 7 7 7 7 6 6 5 1 7 5 5 6 6 6 5 6 9 10 12 9 16 20 25 25 28 27 26 23 21 21 20 18 16 13 12
3 6 7 9 7 6 8 7 6 7 5 5 4 4 4 5 4 5 6 4 3 2 3 5 8 7 9 8 8 15 22 26 26 25 23 22 22 21 19 16 15 14 11
4 6 6 6 7 6 5 5 6 7 5 5 5 4 4 5 6 3 7 6 5 3 4 5 6 6 6 6 11 24 21 23 21 21 19 17 18 18 17 17 15 13 11
5 6 6 5 5 5 5 5 7 6 5 4 5 5 3 2 2 3 6 5 3 2 3 4 5 5 8 7 13 23 24 23 17 13 11 13 14 15 14 14 13 11 9
4 6 5 5 5 5 6 6 5 5 6 4 6 4 3 2 3 3 6 8 5 2 3 4 4 6 11 12 18 25 16 18 13 12 11 12 13 12 11 10 9 7 5
6 5 5 5 5 5 5 5 4 6 5 4 4 6 5 4 3 5 5 7 8 4 3 4 3 6 12 13 16 15 14 15 12 12 9 11 11 11 10 8 7 6 6
5 6 5 5 5 5 4 3 5 5 4 6 4 3 2 2 4 5 5 4 5 6 4 2 4 8 13 12 16 13 14 13 12 13 10 10 10 9 8 8 7 6 5
7 6 5 4 4 4 2 1 2 4 4 5 5 5 5 5 6 6 5 5 6 4 6 5 10 14 18 16 12 11 10 9 8 10 9 9 9 8 8 7 6 5 6
7 7 6 5 4 2 3 4 5 4 5 5 4 5 7 7 8 5 5 7 8 8 9 14 13 14 13 14 12 12 9 7 5 6 10 9 8 7 8 8 8 10 10
7 6 6 6 3 3 4 4 5 6 6 7 6 5 7 8 7 4 3 8 9 8 11 10 11 11 10 10 11 10 8 6 6 10 11 11 11 10 11 13 13 13 13
7 7 6 7 5 5 4 5 5 6 5 7 7 7 8 9 7 6 6 8 10 10 11 10 11 11 9 8 8 10 8 5 7 8 12 12 13 17 18 16 16 17 15
7 8 9 8 6 5 4 5 6 7 6 6 7 7 7 8 10 6 5 10 11 8 9 11 9 9 9 9 9 6 9 10 7 8 9 10 11 11 10 15 16 16 15
8 8 9 8 7 4 6 5 4 7 7 7 8 9 11 12 11 11 12 11 8 11 10 9 10 10 10 9 8 8 10 10 7 7 10 9 8 8 8 9 11 13 14
7 7 8 8 6 9 5 3 1 6 8 7 10 8 8 8 11 12 15 15 14 13 9 11 12 9 11 10 11 10 11 10 10 10 10 9 8 9 9 9 10 12 13
7 6 4 8 8 7 6 3 4 6 7 8 9 10 10 12 11 10 14 12 10 10 10 7 9 9 9 11 11 8 8 9 10 9 8 8 8 8 8 8 8 10 10
6 6 7 8 9 7 3 5 5 6 9 8 9 7 11 13 10 10 15 11 11 8 10 14 12 8 9 11 9 9 9 11 10 9 7 8 7 9 8 8 7 9 9
10 8 9 8 8 5 4 5 2 6 5 7 8 10 16 11 10 10 9 12 10 9 10 13 10 9 10 7 2 9 10 9 8 7 8 6 9 8 6 6 8 7 8
Wind_Direction
246 256 256 261 258 259 252 247 256 258 258 243 244 241 231 230 237 221 235 161 218 244 254 256 261 242 220 196 188 174 159 142 133 130 126 123 121 130 130 126 125 124 127
242 255 250 245 250 257 252 251 238 266 254 256 241 242 235 221 218 215 246 201 200 226 241 248 258 241 213 181 166 157 143 141 136 144 135 134 135 154 158 132 127 131 132
237 253 258 258 259 262 255 245 246 237 252 239 245 222 226 217 227 228 239 243 198 200 220 235 251 235 199 178 157 158 156 156 149 145 143 147 156 175 153 134 138 136 130
243 248 250 245 246 236 240 240 233 234 247 245 223 230 231 209 218 220 232 234 234 250 191 216 234 223 188 171 166 160 155 150 149 147 150 158 179 167 137 140 139 135 137
238 238 239 239 235 240 227 232 239 248 234 243 231 220 215 210 225 214 223 219 245 257 226 159 216 208 194 191 173 165 162 156 154 159 157 175 176 143 139 140 137 135 133
242 235 238 241 220 228 232 234 229 241 246 231 218 210 206 211 204 218 217 208 219 229 223 214 196 179 191 182 178 169 166 159 156 155 170 160 151 144 143 136 137 137 136
245 236 214 209 218 240 233 235 237 239 227 219 193 198 200 205 211 210 203 193 207 204 198 189 167 163 140 101 183 160 160 160 159 163 162 150 143 144 136 138 134 136 142
231 224 225 213 208 217 224 225 224 225 221 207 200 193 181 179 202 200 191 186 191 198 177 163 141 169 129 143 167 170 167 162 158 151 149 139 142 140 138 135 139 144 154
225 211 206 207 204 229 216 223 222 217 213 200 210 221 199 189 155 178 192 180 185 185 166 172 165 170 154 135 154 174 160 159 149 144 140 135 141 143 138 146 150 150 154
224 216 206 210 213 191 225 218 218 220 204 193 188 227 270 163 183 163 179 179 177 165 166 156 154 164 152 164 180 164 160 155 150 143 139 143 148 149 153 148 146 146 156
211 206 197 200 204 214 215 217 185 216 196 211 180 188 237 197 181 196 148 156 104 152 141 148 147 139 151 142 140 135 148 150 147 137 140 151 162 150 145 145 153 160 157
199 202 192 198 210 206 183 192 186 204 201 209 215 209 211 223 182 176 143 137 122 99 97 110 118 119 124 130 144 146 150 133 129 135 156 164 147 141 149 156 157 160 164
182 169 181 183 194 177 178 171 191 202 213 225 213 203 209 237 286 176 147 120 112 83 96 106 116 129 112 107 130 121 115 121 121 133 149 141 139 145 148 151 160 163 167
196 141 180 178 190 178 168 180 192 198 211 210 169 182 239 263 255 165 149 147 123 103 88 120 115 140 126 121 127 119 115 122 127 131 123 127 127 133 136 145 148 162 144
132 164 161 155 130 152 153 167 193 199 198 145 130 165 211 239 220 137 152 164 145 141 117 134 110 108 127 133 130 124 127 129 123 120 114 121 127 133 139 130 138 128 121
161 159 166 140 132 145 151 167 174 179 172 124 179 222 230 161 125 124 143 132 114 107 115 82 101 139 126 117 114 118 125 127 117 122 128 128 126 128 122 126 126 128 130
164 166 164 129 113 117 134 152 166 136 128 166 159 174 149 151 116 126 125 121 115 109 107 117 126 118 121 126 123 119 115 108 106 115 127 120 111 116 127 138 127 105 80
168 164 163 138 118 158 131 138 157 144 138 119 126 157 163 150 127 141 140 145 131 104 122 116 126 122 125 120 121 112 107 106 112 121 113 113 118 115 110 102 92 87 86
160 162 166 116 138 152 129 139 134 118 139 130 159 140 139 155 112 113 146 143 131 126 129 123 120 112 111 119 114 110 110 100 115 109 97 87 85 88 85 89 91 90 85
150 151 143 105 131 118 113 136 116 113 119 133 140 150 139 133 140 121 128 127 130 127 129 131 118 121 123 116 112 117 113 122 123 103 67 83 93 88 91 91 95 94 91
142 130 122 126 128 124 116 121 122 120 125 123 112 103 86 85 108 127 128 128 127 132 124 132 126 120 123 128 131 126 125 129 135 126 126 129 121 112 102 83 96 94 88
139 140 134 125 121 115 82 70 112 124 123 114 107 95 100 104 85 75 84 82 112 130 121 127 129 134 131 122 126 138 133 138 127 158 131 118 123 106 92 90 89 82 80
135 130 123 118 124 124 115 104 50 121 121 131 105 114 108 114 121 106 88 86 79 80 101 130 129 129 122 138 144 165 154 164 138 140 130 127 126 106 105 101 74 82 79
124 124 83 127 132 122 137 163 283 147 123 124 126 131 136 122 113 126 113 95 79 87 107 120 120 124 131 146 170 152 148 99 113 152 148 132 137 121 117 106 80 86 84
124 134 138 140 136 140 175 199 251 148 135 120 123 110 116 102 108 102 118 100 94 84 69 93 101 115 154 169 163 133 145 150 155 155 195 141 152 141 147 133 129 132 121
118 129 138 133 130 146 185 186 185 117 121 119 111 100 69 95 99 114 115 121 114 124 126 127 126 122 118 100 144 195 180 167 159 159 158 168 154 154 165 164 157 171 161